Location: Dattensoll
(49.9928°N, 9.8954°E)
Time: 00:21:45
(UTC+00:00)

Cosmos 2056 Rocket - Pass Details

Date: 19 May 2025
Orbit: 739 x 796 km, 74.0° (Epoch: 15 June)

Event Time Altitude Azimuth Distance (km) Brightness Sun altitude
Rises 22:40:11 0° 339° (NNW) 3,290 8.3 -19.6°
Reaches altitude 10° 22:42:44 10° 346° (NNW) 2,349 7.2 -19.6°
Maximum altitude 22:47:48 42° 58° (ENE) 1,095 4.4 -19.7°
Enters shadow 22:50:55 21° 118° (ESE) 1,680 4.9 -19.8°
